Regional Weather Roundup
Issued by NWS State College, PA

Home | Current Version | Previous Version | Text Only | Print | Product List | Glossary On
Versions: 1 2 3 4 5 6 7 8 9 10 11 12 13 14 15 16 17 18 19 20 21 22 23 24 25 26 27 28 29 30 31 32 33 34 35 36 37 38 39 40 41 42 43 44 45 46 47 48 49 50
000
ASUS41 KCTP 241703
RWRCTP

REGIONAL WEATHER ROUNDUP
NATIONAL WEATHER SERVICE STATE COLLEGE PA
100 PM EDT FRI MAR 24 2017

Note: "fair" indicates few or no clouds below 12,000 feet with no
significant weather and/or obstructions to visibility.

* = STATION THAT DOES NOT REPORT PRECIPITATION /E.G. RAIN...SNOW...ETC/
    THUNDER OR FOG.

PAZ002>004-007>009-013>016-020>023-029>032-241800-
WESTERN PENNSYLVANIA

CITY           SKY/WX    TMP DP  RH WIND       PRES   REMARKS
ERIE           PTSUNNY   67  45  45 SW22G28   30.03F
MEADVILLE      MOSUNNY   61  43  51 SW14      30.09F
FRANKLIN*      MOSUNNY   61  45  55 SW16G24   30.12F
NEW CASTLE     FAIR      64  47  53 SW14      30.12F
BEAVER COUNTY  SUNNY     64  45  48 SW14G24   30.13F
BUTLER*        CLOUDY    63  45  51 SW15G23   30.15F
PITTSBURGH INT CLOUDY    65  44  46 SW16G25   30.14F
PITTSBURGH     CLOUDY    65  43  44 SW15G22   30.15F
INDIANA*       CLOUDY    59  45  58 SW12      30.18F
LATROBE        MOSUNNY   63  45  51 SW18G25   30.18F
WASHINGTON CO* SUNNY     66  45  45 SW12G22   30.19F
$$

PAZ004>006-010>012-017>019-024>028-033>037-041-042-045-046-049>053-241800-
CENTRAL PENNSYLVANIA

CITY           SKY/WX    TMP DP  RH WIND       PRES   REMARKS
BRADFORD       CLOUDY    55  42  61 SW12G23   30.08F
DUBOIS         CLOUDY    57  41  55 SW13G24   30.12F
CLEARFIELD       N/A    N/A N/A N/A MISG      30.14F
JOHNSTOWN      CLOUDY    58  46  64 W13G24    30.17F
ALTOONA        CLOUDY    56  44  64 SW12      30.19F
STATE COLLEGE  MOSUNNY   50  37  62 SW10      30.18F
WILLIAMSPORT   MOSUNNY   43  30  60 E13       30.23F
SELINSGROVE    SUNNY     45  33  63 S13G20    30.26F
FT INDIANTOWN  CLOUDY    45  35  66 S16       30.28F
CAPITAL CITY   CLOUDY    50  34  54 S10       30.29F
HARRISBURG     MOSUNNY   47  35  63 SW8G20    30.29F
YORK           PTSUNNY   47  38  71 SW13      30.30F
$$

PAZ038>040-043-044-047-048-054-055-060>062-067>071-241800-
EASTERN PENNSYLVANIA

CITY           SKY/WX    TMP DP  RH WIND       PRES   REMARKS
SCRANTON       CLOUDY    36  32  85 VRB7      30.22F
MOUNT POCONO   CLOUDY    30  30 100 SW14      30.21F
ALLENTOWN      CLOUDY    43  30  60 SW7       30.31F
QUAKERTOWN*    CLOUDY    41  28  60 SW10G16   30.31F
READING        CLOUDY    47  32  56 S17       30.30F
LANCASTER      MOSUNNY   48  32  53 S13       30.30F
COATESVILLE    PTSUNNY   45  28  53 S10G16    30.32F
POTTSTOWN      CLOUDY    45  26  47 S8        30.33F
BLUE BELL      CLOUDY    45  30  57 SW9       30.31F
DOYLESTOWN     CLOUDY   N/A N/A N/A S10       30.31F
WILLOW GROVE   NOT AVBL
NORTH PHILA    CLOUDY    49  28  44 SW16G25   30.35F
PHILADELPHIA   CLOUDY    51  28  41 SW21G26   30.35F
$$




USA.gov is the U.S. government's official web portal to all federal, state and local government web resources and services.